"2010-02-05 00:00:00",1653399,9.96,332.2,3.964,0.701,7.072,101.4931,3.109,4.464,22.31,0,109.9,13.45,3.87,294.2
"2010-02-05 00:00:30",1653400,10.23,329.2,4.412,0.681,7.186,101.4858,3.09,4.444,22.31,0,109.9,13.45,3.85,291.2
"2010-02-05 00:01:00",1653401,10.86,327.1,4.149,0.724,7.423,101.4785,3.072,4.456,22.47,0,109.9,13.45,3.83,289.1
"2010-02-05 00:01:30",1653402,11.17,329.5,3.411,0.716,7.388,101.4776,3.07,4.454,22.56,0,109.9,13.45,3.83,291.5
"2010-02-05 00:02:00",1653403,10.9,321.6,4.315,0.872,7.35,101.4805,3.077,4.45,22.74,0,109.9,13.45,3.84,283.6
"2010-02-05 00:02:30",1653404,10.89,321.8,3.843,1.051,7.452,101.4839,3.086,4.432,22.71,0,109.9,13.44,3.85,283.8
"2010-02-05 00:03:00",1653405,11.71,321.5,3.853,0.937,7.492,101.4859,3.091,4.428,22.59,0,109.9,13.44,3.85,283.5
"2010-02-05 00:03:30",1653406,10.6,327.5,4.54,0.837,7.633,101.4868,3.093,4.429,22.65,0,109.9,13.44,3.86,289.5
"2010-02-05 00:04:00",1653407,11.37,324,5.187,0.838,7.625,101.4885,3.097,4.414,22.76,0,109.9,13.44,3.86,286.0
"2010-02-05 00:04:30",1653408,11.96,321.5,4.53,0.786,7.788,101.4882,3.097,4.409,22.77,0,109.9,13.44,3.86,283.5
"2010-02-05 00:05:00",1653409,12.21,326,3.648,0.921,7.899,101.486,3.091,4.394,22.55,0,109.9,13.44,3.85,288.0
"2010-02-05 00:05:30",1653410,12.18,321.7,3.16,0.637,8.14,101.4812,3.079,4.389,22.38,0,109.9,13.44,3.84,283.7
"2010-02-05 00:06:00",1653411,12.05,321.6,3.856,0.653,8.2,101.4668,3.042,4.382,22.48,0,109.9,13.44,3.80,283.6
"2010-02-05 00:06:30",1653412,11.64,321.8,4.184,0.834,8.2,101.458,3.02,4.374,22.38,0,109.9,13.44,3.78,283.8
"2010-02-05 00:07:00",1653413,12.21,322.3,3.983,0.7,8.19,101.458,3.02,4.376,22.47,0,109.9,13.44,3.78,284.3
"2010-02-05 00:07:30",1653414,12.19,325,3.199,0.66,8.24,101.4583,3.02,4.368,22.8,0,109.9,13.45,3.78,287.0
"2010-02-05 00:08:00",1653415,11.9,326.9,3.728,0.758,8.18,101.4586,3.021,4.351,22.64,0,109.9,13.45,3.78,288.9
"2010-02-05 00:08:30",1653416,12,329.1,4.443,0.876,8.02,101.4541,3.01,4.327,21.81,0,109.9,13.45,3.77,291.1
"2010-02-05 00:09:00",1653417,12.05,323.3,3.704,0.675,8.11,101.4363,2.964,4.323,22.02,0,109.9,13.45,3.73,285.3
"2010-02-05 00:09:30",1653418,12.07,320,5.186,0.655,8.32,101.425,2.935,4.305,22.4,0,109.8,13.45,3.70,282.0
"2010-02-05 00:10:00",1653419,11.75,315.5,4.465,0.73,8.07,101.4247,2.935,4.305,22.96,0,109.8,13.45,3.70,277.5
"2010-02-05 00:10:30",1653420,13.28,317.1,5.462,0.904,8.13,101.4247,2.935,4.276,23.15,0,109.8,13.45,3.70,279.1
"2010-02-05 00:11:00",1653421,13.32,318,3.864,0.656,8.13,101.423,2.93,4.269,23.02,0,109.8,13.45,3.69,280.0
"2010-02-05 00:11:30",1653422,13.33,318.3,3.827,0.812,8.21,101.4074,2.891,4.248,23.08,0,109.8,13.46,3.65,280.3
"2010-02-05 00:12:00",1653423,13.9,316.5,3.203,0.883,8.37,101.3913,2.849,4.246,22.88,0,109.8,13.46,3.61,278.5
"2010-02-05 00:12:30",1653424,12.94,314.6,3.593,0.739,8.34,101.3908,2.848,4.227,22.81,0,109.8,13.46,3.61,276.6
"2010-02-05 00:13:00",1653425,12.75,313,3.335,0.693,8.22,101.3905,2.847,4.216,23.04,0,109.8,13.46,3.61,275.0
"2010-02-05 00:13:30",1653426,12.46,316.6,4.67,0.757,8.31,101.3667,2.787,4.198,23.46,0,109.8,13.46,3.55,278.6
"2010-02-05 00:14:00",1653427,12.47,318.9,3.133,0.786,8.06,101.3568,2.761,4.167,23.87,0,109.8,13.46,3.52,280.9
"2010-02-05 00:14:30",1653428,12.34,313.9,4.101,0.683,8.24,101.3568,2.761,4.148,23.8,0,109.8,13.46,3.52,275.9
"2010-02-05 00:15:00",1653429,12.03,315.4,4.323,0.673,8.15,101.3568,2.761,4.143,23.78,0,109.8,13.46,3.52,277.4
"2010-02-05 00:15:30",1653430,12.25,315.9,4.409,0.828,8.19,101.3464,2.735,4.116,24,0,109.8,13.46,3.50,277.9
"2010-02-05 00:16:00",1653431,11.94,317.6,4.021,0.837,8.05,101.326,2.683,4.113,23.92,0,109.8,13.46,3.44,279.6
"2010-02-05 00:16:30",1653432,13.01,316.5,2.84,0.95,7.835,101.3229,2.675,4.081,23.91,0,109.8,13.46,3.44,278.5
"2010-02-05 00:17:00",1653433,12.97,317.7,3.686,0.704,7.98,101.3229,2.675,4.077,23.83,0,109.8,13.46,3.44,279.7
"2010-02-05 00:17:30",1653434,12.95,317.4,5.267,0.719,8.17,101.3161,2.658,4.029,23.63,0,109.8,13.46,3.42,279.4
"2010-02-05 00:18:00",1653435,12.8,317.5,3.934,0.739,8.13,101.2949,2.603,4.054,23.46,0,109.8,13.46,3.36,279.5
"2010-02-05 00:18:30",1653436,12.04,317.7,5.193,0.908,8.22,101.2896,2.59,4.011,23.14,0,109.8,13.47,3.35,279.7
"2010-02-05 00:19:00",1653437,12.87,317.1,4.169,0.725,8.12,101.2902,2.591,4.004,23.2,0,109.8,13.46,3.35,279.1
"2010-02-05 00:19:30",1653438,12.85,314,3.354,0.703,8.17,101.2933,2.599,3.981,23.48,0,109.8,13.46,3.36,276.0
"2010-02-05 00:20:00",1653439,13.03,313,3.354,0.688,8.03,101.2908,2.593,3.976,23.36,0,109.8,13.46,3.35,275.0
"2010-02-05 00:20:30",1653440,12.9,309.4,4.949,0.562,8.07,101.2719,2.545,3.969,23.31,0,109.8,13.46,3.31,271.4
"2010-02-05 00:21:00",1653441,12.23,311.5,5.01,0.811,8.19,101.2654,2.528,3.939,23.43,0,109.8,13.46,3.29,273.5
"2010-02-05 00:21:30",1653442,12.29,319,3.846,0.885,7.987,101.2668,2.532,3.938,23.06,0,109.8,13.46,3.29,281.0
"2010-02-05 00:22:00",1653443,12.57,320,4.352,0.815,8.13,101.2708,2.542,3.911,23.06,0,109.8,13.46,3.30,282.0
"2010-02-05 00:22:30",1653444,11.64,322.7,4.196,0.881,8.11,101.2717,2.544,3.89,23.26,0,109.8,13.46,3.31,284.7
"2010-02-05 00:23:00",1653445,11.34,317.6,4.39,0.653,8.06,101.2616,2.518,3.886,23.61,0,109.8,13.46,3.28,279.6
"2010-02-05 00:23:30",1653446,11.66,320.8,4.128,0.552,8.14,101.2475,2.482,3.882,24,0,109.8,13.47,3.24,282.8
"2010-02-05 00:24:00",1653447,12.36,319.8,3.811,1.055,8.05,101.2475,2.482,3.878,23.93,0,109.8,13.47,3.24,281.8
"2010-02-05 00:24:30",1653448,12.75,321.3,4.101,0.793,7.955,101.2472,2.482,3.858,23.5,0,109.8,13.47,3.24,283.3
"2010-02-05 00:25:00",1653449,12.62,319.9,2.875,0.835,7.935,101.2486,2.485,3.836,23.5,0,109.8,13.47,3.25,281.9
"2010-02-05 00:25:30",1653450,12.68,319.4,3.867,0.656,8.21,101.2515,2.493,3.823,23.43,0,109.8,13.47,3.25,281.4
"2010-02-05 00:26:00",1653451,11.14,320.7,5.807,0.801,8.05,101.2509,2.491,3.812,23.27,0,109.7,13.47,3.25,282.7
"2010-02-05 00:26:30",1653452,11.16,317.5,4.183,0.821,7.937,101.2445,2.475,3.811,23.59,0,109.7,13.48,3.24,279.5
"2010-02-05 00:27:00",1653453,11.54,317.7,4.842,0.755,7.985,101.2301,2.438,3.799,23.57,0,109.7,13.48,3.20,279.7
"2010-02-05 00:27:30",1653454,11.69,319.1,3.584,0.868,8.01,101.2221,2.418,3.776,23.56,0,109.7,13.48,3.18,281.1
"2010-02-05 00:28:00",1653455,13.43,319.9,4.583,0.761,7.973,101.2216,2.416,3.803,23.3,0,109.7,13.48,3.18,281.9
"2010-02-05 00:28:30",1653456,11.22,329.7,5.783,1.342,8.01,101.2216,2.416,3.777,22.81,0,109.7,13.48,3.18,291.7
"2010-02-05 00:29:00",1653457,10.35,329.5,6.208,0.941,7.845,101.2216,2.416,3.754,22.64,0,109.7,13.48,3.18,291.5
"2010-02-05 00:29:30",1653458,10.65,321.2,6.872,0.849,7.994,101.2216,2.416,3.752,22.83,0,109.7,13.48,3.18,283.2
"2010-02-05 00:30:00",1653459,10.68,316.4,5.062,0.85,7.799,101.2213,2.415,3.757,22.99,0,109.7,13.48,3.18,278.4
"2010-02-05 00:30:30",1653460,10.79,316.9,5.704,0.855,7.649,101.2173,2.405,3.727,23,0,109.7,13.49,3.17,278.9
"2010-02-05 00:31:00",1653461,10.87,316.4,5.504,0.649,7.739,101.2072,2.379,3.727,22.95,0,109.7,13.49,3.14,278.4
"2010-02-05 00:31:30",1653462,10.49,310.2,3.677,0.641,7.771,101.1956,2.35,3.731,23.25,0,109.7,13.49,3.11,272.2
"2010-02-05 00:32:00",1653463,11.35,314.4,5.802,1.133,7.555,101.1885,2.332,3.697,23.39,0,109.7,13.49,3.09,276.4
"2010-02-05 00:32:30",1653464,12.89,319.4,5.857,1.108,7.626,101.1876,2.33,3.716,23.07,0,109.7,13.49,3.09,281.4
"2010-02-05 00:33:00",1653465,12.96,324.7,6.603,1.047,7.849,101.1876,2.33,3.702,23.16,0,109.7,13.49,3.09,286.7
"2010-02-05 00:33:30",1653466,11.18,309.8,8.39,0.834,7.808,101.1876,2.33,3.709,23.46,0,109.7,13.49,3.09,271.8
"2010-02-05 00:34:00",1653467,11.86,314.6,5.013,0.771,7.809,101.1876,2.33,3.69,24.38,0,109.7,13.49,3.09,276.6
"2010-02-05 00:34:30",1653468,11.57,315,3.692,0.82,7.641,101.1876,2.33,3.686,24.38,0,109.7,13.49,3.09,277.0
"2010-02-05 00:35:00",1653469,11.7,317.6,3.66,0.802,7.664,101.1882,2.331,3.677,24.74,0,109.7,13.49,3.09,279.6
"2010-02-05 00:35:30",1653470,12.36,324,4.14,0.725,8.04,101.1857,2.325,3.685,24.52,0,109.7,13.49,3.08,286.0
"2010-02-05 00:36:00",1653471,11.31,323.9,3.37,0.955,7.788,101.1735,2.294,3.668,23.46,0,109.7,13.49,3.05,285.9
"2010-02-05 00:36:30",1653472,10.66,324.8,3.493,0.827,7.842,101.1636,2.268,3.678,23.42,0,109.7,13.48,3.03,286.8
"2010-02-05 00:37:00",1653473,10.91,324.6,3.507,0.771,7.787,101.1611,2.262,3.663,24.06,0,109.7,13.48,3.02,286.6
"2010-02-05 00:37:30",1653474,11.24,325,4.103,0.677,7.886,101.1597,2.258,3.646,24.58,0,109.7,13.49,3.02,287.0
"2010-02-05 00:38:00",1653475,10.59,324.1,3.603,0.759,7.663,101.1626,2.266,3.654,23.95,0,109.7,13.49,3.03,286.1
"2010-02-05 00:38:30",1653476,10.61,318.8,3.825,0.816,7.599,101.1657,2.274,3.634,23.95,0,109.7,13.49,3.03,280.8
"2010-02-05 00:39:00",1653477,11.16,318.1,4.793,0.721,7.769,101.1689,2.282,3.63,24.25,0,109.7,13.49,3.04,280.1
"2010-02-05 00:39:30",1653478,11.33,325.6,4.821,0.805,7.799,101.1723,2.29,3.639,24.03,0,109.7,13.49,3.05,287.6
"2010-02-05 00:40:00",1653479,11.19,325.7,3.449,0.631,7.543,101.1775,2.304,3.62,23.96,0,109.7,13.49,3.06,287.7
"2010-02-05 00:40:30",1653480,10.53,325.4,3.376,1.014,7.637,101.176,2.3,3.609,24.11,0,109.7,13.49,3.06,287.4
"2010-02-05 00:41:00",1653481,9.49,319.1,4.173,1.167,7.803,101.1707,2.286,3.612,23.97,0,109.7,13.49,3.05,281.1
"2010-02-05 00:41:30",1653482,10.38,328.6,3.642,0.682,7.62,101.1551,2.247,3.595,23.94,0,109.7,13.5,3.01,290.6
"2010-02-05 00:42:00",1653483,9.75,328.2,4.582,0.728,7.518,101.1481,2.229,3.606,23.82,0,109.7,13.5,2.99,290.2
"2010-02-05 00:42:30",1653484,9.44,326.8,4.049,0.837,7.375,101.1467,2.225,3.587,23.86,0,109.7,13.5,2.98,288.8
"2010-02-05 00:43:00",1653485,10.02,323.1,5.172,0.798,7.414,101.1469,2.226,3.586,23.87,0,109.7,13.5,2.99,285.1
"2010-02-05 00:43:30",1653486,10.25,322.9,2.925,0.679,7.459,101.1501,2.234,3.581,23.75,0,109.7,13.5,2.99,284.9
"2010-02-05 00:44:00",1653487,9.56,322.4,5.075,0.646,7.37,101.1507,2.235,3.593,23.88,0,109.7,13.5,3.00,284.4
"2010-02-05 00:44:30",1653488,9.55,320.9,3.621,0.878,7.185,101.1527,2.24,3.561,24.02,0,109.7,13.5,3.00,282.9
"2010-02-05 00:45:00",1653489,9.19,319.3,3.651,0.691,7.245,101.1535,2.243,3.543,24.04,0,109.7,13.5,3.00,281.3
"2010-02-05 00:45:30",1653490,9.25,320.7,3.862,0.546,7.282,101.1518,2.238,3.545,24.04,0,109.7,13.5,3.00,282.7
"2010-02-05 00:46:00",1653491,8.83,324.3,3.392,0.777,6.973,101.1436,2.217,3.559,24.1,0,109.7,13.5,2.98,286.3
"2010-02-05 00:46:30",1653492,9.59,325.4,3.927,1.009,6.974,101.1357,2.197,3.553,24.26,0,109.7,13.5,2.96,287.4
"2010-02-05 00:47:00",1653493,11.26,328.9,5.004,0.786,7.031,101.1352,2.196,3.528,23.8,0,109.7,13.5,2.96,290.9
"2010-02-05 00:47:30",1653494,10.75,328.2,3.008,0.714,7.236,101.1255,2.171,3.52,23.53,0,109.7,13.5,2.93,290.2
"2010-02-05 00:48:00",1653495,10.42,321.8,4.193,0.709,7.431,101.1216,2.161,3.534,23.7,0,109.7,13.5,2.92,283.8
"2010-02-05 00:48:30",1653496,9.24,317.8,4.774,0.845,7.444,101.1202,2.157,3.51,23.78,0,109.7,13.5,2.92,279.8
"2010-02-05 00:49:00",1653497,8.46,318.6,3.836,0.682,7.307,101.1202,2.157,3.5,23.87,0,109.7,13.5,2.92,280.6
"2010-02-05 00:49:30",1653498,8.99,322.3,4.063,0.685,7.031,101.1202,2.157,3.518,23.96,0,109.7,13.5,2.92,284.3
"2010-02-05 00:50:00",1653499,9.15,325.1,3.903,0.791,6.915,101.1202,2.157,3.51,23.96,0,109.7,13.5,2.92,287.1
"2010-02-05 00:50:30",1653500,9.94,322,5.963,0.775,6.982,101.1202,2.157,3.502,23.96,0,109.7,13.5,2.92,284.0
"2010-02-05 00:51:00",1653501,8.86,330.4,4.679,0.85,6.909,101.1196,2.156,3.498,24,0,109.7,13.5,2.92,292.4
"2010-02-05 00:51:30",1653502,10.19,324.6,4.44,0.597,7.131,101.1171,2.149,3.487,23.95,0,109.7,13.5,2.91,286.6
"2010-02-05 00:52:00",1653503,10.8,325.2,3.508,0.963,7.041,101.1066,2.123,3.491,23.86,0,109.7,13.5,2.88,287.2
"2010-02-05 00:52:30",1653504,9.83,330.1,4.832,0.794,7.173,101.0984,2.102,3.471,24.01,0,109.7,13.5,2.86,292.1
"2010-02-05 00:53:00",1653505,9.13,330.1,4.699,0.705,7.215,101.0888,2.077,3.455,24.14,0,109.7,13.5,2.84,292.1
"2010-02-05 00:53:30",1653506,9.84,332.3,4.652,0.677,7.274,101.0862,2.071,3.46,24.14,0,109.7,13.5,2.83,294.3
"2010-02-05 00:54:00",1653507,9.47,330.8,3.707,0.853,7.073,101.0862,2.071,3.468,24.21,0,109.7,13.5,2.83,292.8
"2010-02-05 00:54:30",1653508,9.02,330.3,3.427,0.895,7.069,101.0862,2.071,3.48,24.17,0,109.7,13.5,2.83,292.3
"2010-02-05 00:55:00",1653509,9.09,331.5,4.38,0.904,6.87,101.0862,2.071,3.439,24.07,0,109.7,13.5,2.83,293.5
"2010-02-05 00:55:30",1653510,9.43,326.4,4.003,0.656,7.094,101.0862,2.071,3.442,24.1,0,109.7,13.5,2.83,288.4
"2010-02-05 00:56:00",1653511,9.5,329.8,4.682,0.621,6.96,101.0862,2.071,3.438,24.03,0,109.7,13.5,2.83,291.8
"2010-02-05 00:56:30",1653512,9.23,332.4,4.09,0.794,6.968,101.0865,2.072,3.423,24.07,0,109.7,13.5,2.83,294.4
"2010-02-05 00:57:00",1653513,9.09,333.9,4.041,0.822,6.764,101.0862,2.071,3.409,24.17,0,109.7,13.51,2.83,295.9
"2010-02-05 00:57:30",1653514,9.26,330.4,4.042,0.569,6.903,101.0828,2.062,3.419,24.17,0,109.6,13.51,2.82,292.4
"2010-02-05 00:58:00",1653515,9.44,328.7,4.196,0.665,6.841,101.0743,2.04,3.413,24.25,0,109.7,13.51,2.80,290.7
"2010-02-05 00:58:30",1653516,8.89,331.3,3.568,0.887,6.738,101.0695,2.028,3.39,24.32,0,109.7,13.51,2.79,293.3
"2010-02-05 00:59:00",1653517,7.447,337.2,4.65,0.833,6.687,101.0642,2.015,3.387,24.34,0,109.7,13.52,2.77,299.2
"2010-02-05 00:59:30",1653518,7.232,332.4,6.105,1.079,5.673,101.0594,2.002,3.382,24.25,0,109.6,13.52,2.76,294.4
"2010-02-05 01:00:00",1653519,7.583,330.4,7.878,1.13,3.516,101.0551,1.991,3.084,24.01,0,109.7,13.52,2.75,292.4
"2010-02-05 01:00:30",1653520,6.097,324.9,2.447,0.114,2.614,101.0591,2.002,3.102,24.06,0,109.7,13.55,2.76,286.9
"2010-02-05 01:01:00",1653521,7.802,333.8,4.115,1.041,6.931,101.0591,2.002,3.389,24.2,0,109.7,13.52,2.76,295.8
"2010-02-05 01:01:30",1653522,9.27,328.6,4.379,0.634,7.635,101.0608,2.006,3.381,24.19,0,109.7,13.52,2.76,290.6
"2010-02-05 01:02:00",1653523,9.97,329.5,4.02,0.665,7.834,101.0608,2.006,3.37,24.32,0,109.7,13.52,2.76,291.5
"2010-02-05 01:02:30",1653524,9.5,326,4.27,0.677,7.77,101.06,2.004,3.383,24.48,0,109.7,13.52,2.76,288.0
"2010-02-05 01:03:00",1653525,8.9,325.7,4.3,0.716,7.464,101.064,2.014,3.345,24.59,0,109.7,13.52,2.77,287.7
"2010-02-05 01:03:30",1653526,8.93,328.1,4.455,0.519,7.594,101.0558,1.993,3.354,24.74,0,109.7,13.52,2.75,290.1
"2010-02-05 01:04:00",1653527,8.6,330.6,3.726,0.855,7.193,101.042,1.958,3.359,24.64,0,109.7,13.52,2.72,292.6
"2010-02-05 01:04:30",1653528,9.12,332.5,3.747,0.808,6.942,101.0358,1.942,3.315,24.47,0,109.7,13.52,2.70,294.5
"2010-02-05 01:05:00",1653529,9.37,334.5,3.503,0.783,6.98,101.0369,1.945,3.332,24.37,0,109.7,13.52,2.70,296.5
"2010-02-05 01:05:30",1653530,9.26,333.2,4.004,0.809,7.081,101.0369,1.945,3.326,24.23,0,109.7,13.52,2.70,295.2
"2010-02-05 01:06:00",1653531,9.71,334.5,3.634,0.77,6.882,101.0395,1.952,3.32,24.12,0,109.6,13.52,2.71,296.5
"2010-02-05 01:06:30",1653532,9.22,334.4,3.829,0.813,6.796,101.0415,1.957,3.307,23.96,0,109.7,13.52,2.72,296.4
"2010-02-05 01:07:00",1653533,8.39,332.4,3.464,0.783,6.562,101.0423,1.959,3.309,23.92,0,109.7,13.52,2.72,294.4
"2010-02-05 01:07:30",1653534,8.75,331.2,3.106,0.798,6.609,101.0443,1.964,3.308,23.9,0,109.7,13.52,2.72,293.2
"2010-02-05 01:08:00",1653535,8.12,333.7,5.336,0.895,6.033,101.0455,1.967,3.194,23.8,0,109.6,13.52,2.73,295.7
"2010-02-05 01:08:30",1653536,6.081,323.3,4.775,0.788,2.897,101.0375,1.947,2.979,23.54,0,109.6,13.52,2.71,285.3
"2010-02-05 01:09:00",1653537,6.475,325.3,6.594,1.131,4.435,101.0364,1.944,3.126,23.71,0,109.6,13.52,2.70,287.3
"2010-02-05 01:09:30",1653538,7.572,333.4,6.227,1.18,6.358,101.0276,1.921,3.215,23.81,0,109.6,13.52,2.68,295.4
"2010-02-05 01:10:00",1653539,7.664,338.1,2.869,0.839,7.808,101.0172,1.895,3.248,23.89,0,109.6,13.52,2.65,300.1
"2010-02-05 01:10:30",1653540,7.416,343.7,3.736,0.635,7.713,101.0107,1.878,3.255,23.85,0,109.6,13.52,2.64,305.7
"2010-02-05 01:11:00",1653541,6.869,348.9,7.235,1.109,6.698,101.0135,1.885,3.208,23.84,0,109.6,13.52,2.64,310.9
"2010-02-05 01:11:30",1653542,6.948,345.9,6.067,1.071,6.016,101.0147,1.888,3.142,23.8,0,109.6,13.52,2.65,307.9
"2010-02-05 01:12:00",1653543,5.731,334.2,5.826,0.939,3.492,101.015,1.889,3.055,23.75,0,109.6,13.52,2.65,296.2
"2010-02-05 01:12:30",1653544,7.106,343.1,7.951,0.953,6.307,101.0161,1.892,3.057,23.76,0,109.6,13.53,2.65,305.1
"2010-02-05 01:13:00",1653545,6.918,342.5,6.071,1.104,6.507,101.0144,1.888,3.179,23.87,0,109.6,13.53,2.65,304.5
"2010-02-05 01:13:30",1653546,7.48,338.4,4.507,0.717,7.572,101.0141,1.887,3.25,23.96,0,109.6,13.53,2.65,300.4
"2010-02-05 01:14:00",1653547,7.271,337.3,6.059,1.043,6.362,101.0155,1.89,3.15,23.95,0,109.6,13.53,2.65,299.3
"2010-02-05 01:14:30",1653548,6.543,336.5,6.062,1.126,5.272,101.0158,1.891,3.158,24.01,0,109.6,13.53,2.65,298.5
"2010-02-05 01:15:00",1653549,6.321,332.9,6.017,1.231,3.928,101.0184,1.898,2.991,23.92,0,109.6,13.53,2.66,294.9
"2010-02-05 01:15:30",1653550,6.088,338.6,7.332,1.071,4.95,101.0181,1.897,3.221,24.09,0,109.6,13.53,2.66,300.6
"2010-02-05 01:16:00",1653551,6.786,344.7,6.538,1.151,6.415,101.0187,1.898,3.134,24.03,0,109.6,13.54,2.66,306.7
"2010-02-05 01:16:30",1653552,7.016,350.1,5.739,1.008,7.206,101.0164,1.893,3.235,24.13,0,109.6,13.54,2.65,312.1
"2010-02-05 01:17:00",1653553,6.506,352.8,8.31,1.082,6.441,101.0122,1.882,3.145,24.07,0,109.6,13.54,2.64,314.8
"2010-02-05 01:17:30",1653554,7.747,350.4,9.44,1.268,6.376,101.0088,1.873,3.149,24.07,0,109.6,13.54,2.63,312.4
"2010-02-05 01:18:00",1653555,7.638,340.3,7.91,1.237,5.006,101,1.851,3.135,24.1,0,109.6,13.54,2.61,302.3
"2010-02-05 01:18:30",1653556,7.803,338.6,5.134,1.14,6.051,100.9912,1.828,3.094,24.24,0,109.6,13.54,2.59,300.6
"2010-02-05 01:19:00",1653557,7.621,338.3,7.246,1.385,5.204,100.9861,1.815,3.096,24.3,0,109.6,13.54,2.57,300.3
"2010-02-05 01:19:30",1653558,7.646,332.8,5.939,1.013,7.215,100.9847,1.812,3.154,24.19,0,109.6,13.54,2.57,294.8
"2010-02-05 01:20:00",1653559,7.033,330.8,6.946,1.16,6.595,100.9847,1.812,3.129,24.15,0,109.6,13.54,2.57,292.8
"2010-02-05 01:20:30",1653560,6.442,339.8,15.19,1.461,6.558,100.9847,1.812,3.049,23.96,0,109.6,13.54,2.57,301.8
"2010-02-05 01:21:00",1653561,4.8,345.8,7.106,1.971,4.86,100.9847,1.812,3.116,24.01,0,109.6,13.54,2.57,307.8
"2010-02-05 01:21:30",1653562,7.356,342.8,6.53,1.003,5.996,100.9847,1.812,3.034,24.05,0,109.6,13.54,2.57,304.8
"2010-02-05 01:22:00",1653563,6.461,336.3,6.288,1.063,5.724,100.9847,1.812,3.073,24.01,0,109.6,13.54,2.57,298.3
"2010-02-05 01:22:30",1653564,6.791,343,7.984,1.13,6.985,100.9847,1.812,3.115,23.98,0,109.6,13.54,2.57,305.0
"2010-02-05 01:23:00",1653565,6.173,344.2,11.69,1.142,6.639,100.9847,1.812,3.088,23.99,0,109.6,13.54,2.57,306.2
"2010-02-05 01:23:30",1653566,6.921,348.6,6.204,1.87,5.432,100.9847,1.812,3.042,24.08,0,109.6,13.54,2.57,310.6
"2010-02-05 01:24:00",1653567,7.607,343.1,6.909,1.204,5.022,100.9839,1.81,2.914,23.97,0,109.6,13.54,2.57,305.1
"2010-02-05 01:24:30",1653568,7.314,346.6,8.19,1.183,6.066,100.9813,1.803,3.057,24.11,0,109.6,13.54,2.56,308.6
"2010-02-05 01:25:00",1653569,6.864,349.3,8.26,1.208,5.971,100.9779,1.794,3.067,24.17,0,109.6,13.54,2.55,311.3
"2010-02-05 01:25:30",1653570,7.238,355.6,5.941,1.288,7.117,100.9723,1.78,3.103,24.39,0,109.6,13.54,2.54,317.6
"2010-02-05 01:26:00",1653571,6.746,353.2,6.784,1.313,5.64,100.9643,1.76,3.031,24.33,0,109.6,13.54,2.52,315.2
"2010-02-05 01:26:30",1653572,5.795,353.3,5.196,1.973,5.373,100.9626,1.756,2.943,24.25,0,109.6,13.54,2.51,315.3
"2010-02-05 01:27:00",1653573,6.002,354.9,10.48,1.249,5.212,100.9584,1.745,2.929,24.2,0,109.6,13.54,2.50,316.9
"2010-02-05 01:27:30",1653574,7.273,349.9,6.921,1.036,6.179,100.9581,1.744,3.038,24.35,0,109.6,13.54,2.50,311.9
"2010-02-05 01:28:00",1653575,6.355,347.7,7.796,1.15,5.233,100.9525,1.73,3.007,24.4,0,109.6,13.54,2.49,309.7
"2010-02-05 01:28:30",1653576,7.155,354.8,4.362,1.063,6.705,100.9516,1.727,3.103,24.56,0,109.6,13.54,2.49,316.8
"2010-02-05 01:29:00",1653577,6.814,355.7,6.454,1.164,5.922,100.9508,1.725,2.968,24.47,0,109.6,13.54,2.48,317.7
"2010-02-05 01:29:30",1653578,5.624,356.7,9.43,1.85,5.946,100.9508,1.725,2.981,24.55,0,109.6,13.54,2.48,318.7
"2010-02-05 01:30:00",1653579,6.497,343.3,7.112,1.15,5.316,100.9508,1.725,2.956,24.53,0,109.7,13.55,2.48,305.3
"2010-02-05 01:30:30",1653580,6.949,339.9,6.47,1.184,5.546,100.9508,1.725,3.013,24.45,0,109.6,13.55,2.48,301.9
"2010-02-05 01:31:00",1653581,7.457,338.8,4.812,1.266,6.519,100.9508,1.725,3.017,24.39,0,109.6,13.55,2.48,300.8
"2010-02-05 01:31:30",1653582,7.967,340.9,5.866,1.255,6.325,100.9508,1.725,2.995,24.38,0,109.6,13.55,2.48,302.9
"2010-02-05 01:32:00",1653583,8.55,344.1,5.035,1.262,6.351,100.9508,1.725,2.942,24.43,0,109.6,13.55,2.48,306.1
"2010-02-05 01:32:30",1653584,8.79,347.3,6.052,0.9,6.097,100.9508,1.725,3.031,24.55,0,109.6,13.55,2.48,309.3
"2010-02-05 01:33:00",1653585,8.06,346.9,4.02,0.922,7.135,100.946,1.713,3.073,24.66,0,109.6,13.55,2.47,308.9
"2010-02-05 01:33:30",1653586,6.484,332.9,7.446,1.138,5.88,100.9426,1.704,2.995,24.34,0,109.6,13.55,2.46,294.9
"2010-02-05 01:34:00",1653587,7.127,323.3,6.195,1.075,6.629,100.9366,1.689,2.986,24.04,0,109.6,13.55,2.45,285.3
"2010-02-05 01:34:30",1653588,8.48,321.2,11.62,1.509,4.676,100.9361,1.688,2.954,23.96,0,109.6,13.55,2.45,283.2
"2010-02-05 01:35:00",1653589,8.15,331.9,7.573,1.132,6.133,100.9372,1.691,2.944,24.01,0,109.6,13.55,2.45,293.9
"2010-02-05 01:35:30",1653590,9.39,332.9,7.806,1.408,6.942,100.9445,1.709,3.017,24.06,0,109.6,13.55,2.47,294.9
"2010-02-05 01:36:00",1653591,7.642,340.2,5.568,0.984,7.428,100.9423,1.704,2.996,24.05,0,109.6,13.55,2.46,302.2
"2010-02-05 01:36:30",1653592,7.314,341.8,7.694,0.856,7.081,100.9431,1.706,3.005,24.14,0,109.6,13.55,2.46,303.8
"2010-02-05 01:37:00",1653593,6.099,357.2,8.14,1.341,6.124,100.942,1.703,2.968,24.45,0,109.6,13.55,2.46,319.2
"2010-02-05 01:37:30",1653594,7.644,348.4,5.247,1.069,5.979,100.9392,1.696,2.95,24.67,0,109.6,13.55,2.45,310.4
"2010-02-05 01:38:00",1653595,6.497,342.6,4.045,0.8,2.923,100.9375,1.691,2.728,24.54,0,109.6,13.55,2.45,304.6
"2010-02-05 01:38:30",1653596,7.966,346.7,6.286,1.23,5.579,100.9308,1.674,2.919,24.79,0,109.6,13.56,2.43,308.7
"2010-02-05 01:39:00",1653597,9.18,347.3,4.625,0.935,7.042,100.9242,1.657,2.952,24.83,0,109.6,13.56,2.42,309.3
"2010-02-05 01:39:30",1653598,8.9,349.1,4.765,0.755,7.45,100.9279,1.667,3.04,24.91,0,109.6,13.56,2.42,311.1
"2010-02-05 01:40:00",1653599,9,349.7,3.096,0.823,7.207,100.9294,1.671,3.014,24.99,0,109.6,13.55,2.43,311.7
"2010-02-05 01:40:30",1653600,8.95,343.8,3.572,0.895,7.176,100.9288,1.669,3.038,24.73,0,109.6,13.55,2.43,305.8
"2010-02-05 01:41:00",1653601,10.42,345.1,5.562,0.927,6.972,100.9311,1.675,3.006,24.29,0,109.6,13.55,2.43,307.1
"2010-02-05 01:41:30",1653602,10.58,353,6.619,0.856,6.993,100.9342,1.683,3.027,24.16,0,109.6,13.55,2.44,315.0
"2010-02-05 01:42:00",1653603,9.48,352.8,5.724,0.842,6.677,100.9362,1.688,2.999,24.2,0,109.6,13.55,2.45,314.8
"2010-02-05 01:42:30",1653604,8.54,350.6,4.841,0.891,6.527,100.9359,1.687,2.996,24.34,0,109.6,13.55,2.45,312.6
"2010-02-05 01:43:00",1653605,7.992,355.1,7.198,0.993,6.404,100.9382,1.693,2.997,24.41,0,109.6,13.55,2.45,317.1
"2010-02-05 01:43:30",1653606,6.87,347.9,8.58,1.23,4.731,100.9371,1.69,2.906,24.27,0,109.6,13.55,2.45,309.9
"2010-02-05 01:44:00",1653607,6.538,332.2,4.858,1.115,2.537,100.9379,1.692,2.704,24.21,0,109.6,13.55,2.45,294.2
"2010-02-05 01:44:30",1653608,8.1,336.7,5.561,1.508,4.302,100.9394,1.696,2.835,24.44,0,109.6,13.55,2.45,298.7
"2010-02-05 01:45:00",1653609,9.3,346.9,5.574,1.102,7.046,100.9414,1.701,2.993,24.62,0,109.6,13.55,2.46,308.9
"2010-02-05 01:45:30",1653610,9.21,346,4.834,0.789,7.746,100.9425,1.704,2.985,24.61,0,109.6,13.56,2.46,308.0
"2010-02-05 01:46:00",1653611,8.87,342,4.87,0.934,7.314,100.9422,1.703,3,24.74,0,109.6,13.56,2.46,304.0
"2010-02-05 01:46:30",1653612,9.95,341.8,4.895,0.906,7.215,100.9428,1.705,3.014,24.9,0,109.6,13.56,2.46,303.8
"2010-02-05 01:47:00",1653613,9.88,342.4,4.342,0.81,7.1,100.9428,1.705,2.993,24.98,0,109.6,13.56,2.46,304.4
"2010-02-05 01:47:30",1653614,9.26,340.1,7.566,0.694,6.922,100.9431,1.706,2.975,25.14,0,109.6,13.56,2.46,302.1
"2010-02-05 01:48:00",1653615,9.68,339.7,6.959,0.943,6.855,100.9403,1.698,2.989,25.12,0,109.6,13.56,2.46,301.7